Location: Newark
(48.1500°N, 13.1167°E)
Time: 16:50:33
(UTC+00:00)

XW-2D - Pass Details

Date: 07 December 2021
Orbit: 502 x 522 km, 97.5° (Epoch: 17 January)

Event Time Altitude Azimuth Distance (km) Brightness Sun altitude
Rises 05:00:35 0° 16° (NNE) 2,668 ? -16.4°
Reaches altitude 10° 05:02:43 10° 20° (NNE) 1,774 ? -16.1°
Maximum altitude 05:06:31 60° 101° (E) 605 ? -15.4°
Drops below altitude 10° 05:10:16 10° 182° (S) 1,755 ? -14.9°
Sets 05:12:22 0° 186° (S) 2,636 ? -14.5°
